Location: G�migny
(47.9646°N, 1.6950°E)
Time: 10:54:22
(UTC+00:00)

YAOGAN 6 - Pass Details

Date: 26 January 2020
Orbit: 465 x 505 km, 97.0° (Epoch: 25 February)

Event Time Altitude Azimuth Distance (km) Brightness Sun altitude
Rises 17:28:25 0° 155° (SSE) 2,587 6.2 -7.8°
Reaches altitude 10° 17:30:31 10° 151° (SSE) 1,703 5.2 -8.1°
Maximum altitude 17:34:06 53° 74° (ENE) 616 2.7 -8.7°
Drops below altitude 10° 17:37:40 10° 357° (N) 1,698 5.2 -9.3°
Sets 17:39:46 0° 352° (N) 2,578 6.1 -9.6°
